CSS (TIANHE) (48274 NORAD) Tracking and Keplerian Element Data

This shows tracking and keplerian element data for the satellite.

Feedback or suggestion? Click here.




ElementValue
Catalog48274
NameCSS (TIANHE)
Epoch Orbit10540
Epoch Day63.15814038
Epoch Year2023
RAAN76.5052
Inclination41.4753
Eccentricity0.0003558
Argument of Perigee353.5237
Mean Anonmoly97.7444
Mean Motion15.61681384
Decay Rate0.0001927
L11 48274U 21035A 23063.15814038 .00019270 00000+0 22044-3 0 9993
L22 48274 41.4753 76.5052 0003558 353.5237 97.7444 15.61681384105403



Live tracking and technical data element details for CSS (TIANHE) (NORAD 48274). CSS (TIANHE) can be tracked NOW for your location showing map with azimuth and elevation plus other details from your city location.







IsCatalogInMostPopularTable: catalog: 48274, numindb: 851
Update: records affected: 1



GetName: 48274 CSS (TIANHE)

Hit Count: updated at: Wed, 22 Mar 2023 15:39:57 GMT